Flag for Germany Weather past 2 weeks in Husum, Schleswig-Holstein, Germany

Now
63 °F

Mild.


Feels Like: 63 °F
Forecast: 59 / 69 °F
Wind: 6 mph from Northeast

Location: Schleswig-Jagel

Current Time: Aug 30, 2015 at 10:32:30 AM

Latest Report: Aug 30, 2015 at 9:20 AM


Visibility: 3 mi

Pressure: 30.12 "Hg

Humidity: 83%

Dew point: 57 °F

Location of HusumLocation

Historic Weather in Husum — Graph

°F

Husum temperature yesterday

Maximum temperature yesterday: 70 °F (at 5:20 PM)
Minimum temperature yesterday: 50 °F (at 4:20 AM)
Average temperature yesterday: 60 °F

Past Weeks' High & Low Weather Summary

 TemperatureHumidityPressure
High77 °F (Aug 21, 4:20 PM)100% (Aug 15, 10:20 PM)30.30 "Hg (Aug 15, 10:20 PM)
Low50 °F (Aug 21, 5:20 AM)36% (Aug 21, 4:20 PM)29.56 "Hg (Aug 24, 10:20 PM)
Average64 °F80%29.96 "Hg
* Reported Aug 15 9:20 AM — Aug 30 9:20 AM, Husum, Weather by CustomWeather, © 2015

Note: Actual official high and low records may vary slightly from our data, if they occured in-between our weather recording intervals... More about our weather records

Advertising

Husum weather history for previous 24 hours

 ConditionsComfort  
Time TempWeatherWind HumidityBarometerVisibility
9:20 AM
Sun, Aug 30
63 °FMild.6 mph83%30.12 "Hg3 mi
8:20 AM59 °FCool.2 mph94%30.12 "Hg2 mi
7:20 AM57 °FCool.2 mph88%30.12 "Hg2 mi
6:20 AM57 °FCool.2 mph88%30.09 "Hg2 mi
5:20 AM55 °FCool.2 mph94%30.12 "Hg2 mi
4:20 AM54 °FCool.2 mph94%30.12 "Hg2 mi
3:20 AM55 °FCool.2 mph88%30.12 "Hg2 mi
2:20 AM55 °FCool.1 mph88%30.15 "Hg2 mi
1:20 AM57 °FCool.5 mph82%30.15 "Hg2 mi
12:20 AM61 °FCool.6 mph77%30.15 "Hg2 mi
11:20 PM
Sat, Aug 29
61 °FCool.6 mph77%30.15 "Hg2 mi
10:20 PM61 °FCool.5 mph77%30.15 "Hg2 mi
9:20 PM63 °FMild.6 mph77%30.15 "Hg2 mi
8:20 PM64 °FMild.2 mph73%30.15 "Hg3 mi
7:20 PM66 °FMild.2 mph64%30.15 "Hg3 mi
6:20 PM68 °FMild.5 mph60%30.15 "Hg3 mi
5:20 PM70 °FMild.5 mph57%30.18 "Hg3 mi
4:20 PM68 °FMild.8 mph56%30.18 "Hg3 mi
3:20 PM68 °FMild.8 mph60%30.18 "Hg3 mi
2:20 PM68 °FMild.10 mph56%30.21 "Hg3 mi
1:20 PM68 °FMild.10 mph60%30.21 "Hg3 mi
11:20 AM64 °FMild.9 mph73%30.21 "Hg3 mi
10:20 AM63 °FMild.10 mph77%30.21 "Hg3 mi
Weather by CustomWeather, © 2015

See weather overviewHow to use our weather pages